Location: Unspecified
(43.4354°N, 0.0000°E)
Time: 18:16:30
(UTC+00:00)

Courier 1B - Pass Details

Date: 21 June 2019
Orbit: 962 x 1209 km, 28.3° (Epoch: 16 August)

Event Time Altitude Azimuth Distance (km) Brightness Sun altitude
Rises 23:07:24 0° 254° (WSW) 4,041 10.7 -22.0°
Reaches altitude 10° 23:11:27 10° 235° (SW) 3,109 9.9 -22.1°
Enters shadow 23:12:51 13° 225° (SW) 2,887 9.6 -22.2°
Maximum altitude 23:15:51 16° 200° (SSW) 2,685 - -22.3°
Drops below altitude 10° 23:20:17 10° 165° (SSE) 3,137 - -22.4°
Sets 23:24:26 0° 145° (SE) 4,096 - -22.6°
